CW2927 Weather Reports


Display with metric or nautical units.
time (UTC)temp
F
wind
direction
speed
MPH
gust
MPH
rain 1hr
in
rain 24hr
in
rain mn
in
humidity
%
barometer
mb
20240227140704 44 136 2.0 6.0 0.00 0.00 0.00 63 1011.5
20240227134704 41 117 1.0 3.0 0.00 0.00 0.00 67 1011.8
20240227134204 40 117 1.0 3.0 0.00 0.00 0.00 68 1011.8
20240227132704 38 115 1.0 2.0 0.00 0.00 0.00 69 1011.8
20240227130704 36 115 0.0 1.0 0.00 0.00 0.00 72 1012.0
20240227124704 35 115 0.0 1.0 0.00 0.00 0.00 72 1012.0
20240227124204 35 115 0.0 1.0 0.00 0.00 0.00 72 1011.9
20240227122704 35 115 0.0 2.0 0.00 0.00 0.00 72 1011.8
20240227122204 35 115 0.0 2.0 0.00 0.00 0.00 72 1011.8
20240227114704 29 0 0.0 0.0 0.00 0.00 0.00 77 1011.5
20240227114204 29 0 0.0 0.0 0.00 0.00 0.00 77 1011.6
20240227112704 29 0 0.0 0.0 0.00 0.00 0.00 77 1011.9
20240227112205 29 0 0.0 0.0 0.00 0.00 0.00 77 1012.0
20240227110704 29 0 0.0 0.0 0.00 0.00 0.00 77 1012.3
20240227104704 29 0 0.0 0.0 0.00 0.00 0.00 77 1012.6
20240227102704 29 0 0.0 0.0 0.00 0.00 0.00 77 1012.9
20240227102204 29 0 0.0 0.0 0.00 0.00 0.00 77 1012.9
20240227100204 29 0 0.0 0.0 0.00 0.00 0.00 77 1013.2
20240227094703 29 0 0.0 0.0 0.00 0.00 0.00 77 1013.3
20240227094204 29 0 0.0 0.0 0.00 0.00 0.00 77 1013.3
20240227092704 29 0 0.0 0.0 0.00 0.00 0.00 77 1013.6
20240227090704 29 0 0.0 0.0 0.00 0.00 0.00 77 1014.0
20240227090204 29 0 0.0 0.0 0.00 0.00 0.00 77 1014.0
20240227084204 29 0 0.0 1.0 0.00 0.00 0.00 77 1014.5
20240227082704 29 74 1.0 1.0 0.00 0.00 0.00 77 1014.8
20240227080705 29 74 0.0 0.0 0.00 0.00 0.00 77 1015.1
20240227080205 29 74 0.0 0.0 0.00 0.00 0.00 77 1015.0
20240227074705 29 74 0.0 0.0 0.00 0.00 0.00 76 1015.0
20240227072705 29 74 0.0 1.0 0.00 0.00 0.00 76 1015.4
20240227072205 29 74 0.0 1.0 0.00 0.00 0.00 75 1015.4
20240227070706 29 74 0.0 1.0 0.00 0.00 0.00 75 1015.4
20240227070205 29 74 0.0 2.0 0.00 0.00 0.00 75 1015.3
20240227064205 29 70 1.0 3.0 0.00 0.00 0.00 73 1015.4
20240227062705 28 65 0.0 2.0 0.00 0.00 0.00 71 1015.3
20240227060705 28 60 1.0 2.0 0.00 0.00 0.00 70 1015.6
20240227060205 28 59 1.0 2.0 0.00 0.00 0.00 71 1015.7
20240227054205 28 59 0.0 1.0 0.00 0.00 0.00 70 1016.2
20240227052705 28 59 1.0 2.0 0.00 0.00 0.00 68 1016.1
20240227052206 28 59 0.0 2.0 0.00 0.00 0.00 67 1016.1
20240227050705 29 59 0.0 1.0 0.00 0.00 0.00 65 1015.8
20240227044705 29 59 1.0 2.0 0.00 0.00 0.00 65 1015.7
20240227044205 29 59 0.0 3.0 0.00 0.00 0.00 65 1016.0
20240227042705 29 62 1.0 3.0 0.00 0.00 0.00 64 1015.7
20240227042205 29 64 1.0 3.0 0.00 0.00 0.00 64 1015.7
20240227040705 29 69 1.0 2.0 0.00 0.00 0.00 66 1016.0
20240227040205 29 81 1.0 5.0 0.00 0.00 0.00 66 1016.2
20240227034705 29 57 1.0 3.0 0.00 0.00 0.00 68 1016.3
20240227034205 29 53 1.0 3.0 0.00 0.00 0.00 70 1016.3
20240227032705 27 356 1.0 3.0 0.00 0.00 0.00 79 1016.6
20240227030705 26 277 0.0 1.0 0.00 0.00 0.00 83 1017.1
20240227024705 26 277 0.0 0.0 0.00 0.00 0.00 82 1017.4
20240227024205 26 277 0.0 0.0 0.00 0.00 0.00 82 1017.4
20240227022705 27 277 0.0 0.0 0.00 0.00 0.00 81 1017.2
20240227020705 27 277 0.0 0.0 0.00 0.00 0.00 80 1017.1
20240227020204 27 277 0.0 1.0 0.00 0.00 0.00 80 1016.9
20240227014705 27 277 1.0 2.0 0.00 0.00 0.00 81 1016.8
20240227014204 27 277 1.0 2.0 0.00 0.00 0.00 81 1016.8
20240227012705 27 277 0.0 0.0 0.00 0.00 0.00 82 1016.8
20240227012205 27 277 0.0 1.0 0.00 0.00 0.00 82 1016.9
20240227010705 27 277 0.0 0.0 0.00 0.00 0.00 81 1016.9
20240227010205 27 277 0.0 2.0 0.00 0.00 0.00 80 1016.9
20240227004705 27 277 0.0 0.0 0.00 0.00 0.00 79 1016.7
20240227004205 27 277 0.0 0.0 0.00 0.00 0.00 78 1016.6
20240227002705 28 277 0.0 0.0 0.00 0.00 0.00 76 1016.5
20240227002205 28 277 0.0 0.0 0.00 0.00 0.00 75 1016.4
20240227000704 29 277 0.0 0.0 0.00 0.00 0.00 73 1016.2
20240227000205 30 277 0.0 0.0 0.00 0.00 0.00 71 1016.1
20240226234704 31 277 0.0 1.0 0.00 0.00 0.00 67 1015.9